Weather History for PHSF - November, 2013

Change the Weather History Date:

Saturday, November 2, 2013

  Actual Average Record
Temperature  
Mean Temperature 58 °F -  
Max Temperature 69 °F 67 °F 75 °F (2006)
Min Temperature 47 °F 48 °F 41 °F (2010)
Degree Days  
Heating Degree Days 7    
Growing Degree Days 8 (Base 50)    
Moisture  
Dew Point 50 °F    
Average Humidity 66    
Maximum Humidity 93    
Minimum Humidity 46    
Precipitation  
Precipitation 0.00 in - - ()
Sea Level Pressure  
Sea Level Pressure 30.32 in    
Wind  
Wind Speed 11 mph (SSE)    
Max Wind Speed 17 mph    
Max Gust Speed 30 mph    
Visibility 12 miles    
Events      
Averages and records for this station are not official NWS values.
T = Trace of Precipitation, MM = Missing Value Source: NWS Daily Summary

Daily Weather History Graph

Daily Weather History Graph

Search for Another Location

Airport or City:

Trip Planner

Search our weather history database for the weather conditions in past years. The results will help you decide how hot, cold, wet, or windy it might be!

Date:

Astronomy

Nov. 02, 2013 Rise Set
Actual Time 6:24 AM HST 5:47 PM HST
Civil Twilight 6:01 AM HST 6:09 PM HST
Nautical Twilight 5:35 AM HST 6:36 PM HST
Astronomical Twilight 5:09 AM HST 7:02 PM HST
Moon 5:37 AM HST (11/2) 5:24 PM HST (11/2)
Length of Visible Light 12h 08m
Length of Day
11h 23m
Waning Crescent, 1% of the Moon is Illuminated
Nov 2
Waning Crescent
Nov 3
New
Nov 9
First Quarter
Nov 17
Full
Nov 25
Last Quarter

Hourly Weather History & Observations

Time (HST) Temp. Dew Point Humidity Pressure Visibility Wind Dir Wind Speed Gust Speed Precip Events Conditions
12:56 AM 50.2 °F 47.8 °F 92% 30.35 in 12.0 mi SE 8.1 mph - N/A   Clear
1:56 AM 50.0 °F 48.0 °F 93% 30.33 in 12.0 mi ESE 4.6 mph - N/A   Clear
2:56 AM 48.6 °F 45.5 °F 89% 30.31 in 12.0 mi ESE 3.5 mph - N/A   Clear
3:56 AM 47.5 °F 40.6 °F 77% 30.32 in 12.0 mi ESE 3.5 mph - N/A   Clear
4:56 AM 49.3 °F 42.1 °F 76% 30.31 in 12.0 mi East 5.8 mph - N/A   Clear
5:56 AM 48.9 °F 45.0 °F 86% 30.33 in 12.0 mi ESE 4.6 mph - N/A   Clear
6:56 AM 48.7 °F 44.4 °F 85% 30.35 in 12.0 mi ESE 5.8 mph - N/A   Clear
7:56 AM 54.0 °F 48.4 °F 81% 30.36 in 12.0 mi SE 13.8 mph 20.7 mph N/A   Clear
8:56 AM 59.5 °F 49.5 °F 69% 30.37 in 12.0 mi SE 11.5 mph 16.1 mph N/A   Clear
9:56 AM 62.6 °F 50.0 °F 63% 30.38 in 12.0 mi SSE 12.7 mph 21.9 mph N/A   Clear
10:24 AM 64.4 °F 48.2 °F 56% 30.37 in 12.0 mi South 13.8 mph 25.3 mph N/A   Clear
10:28 AM 64.4 °F 50.0 °F 59% 30.36 in 12.0 mi SE 17.3 mph - N/A   Clear
10:56 AM 66.4 °F 50.0 °F 56% 30.35 in 12.0 mi SSE 13.8 mph 25.3 mph N/A   Clear
11:20 AM 66.2 °F 50.0 °F 56% 30.35 in 12.0 mi South 13.8 mph 21.9 mph N/A   Clear
11:21 AM 66.2 °F 51.8 °F 60% 30.35 in 12.0 mi SSW 13.8 mph 21.9 mph N/A   Clear
11:23 AM 66.2 °F 51.8 °F 60% 30.35 in 12.0 mi SSE 15.0 mph 21.9 mph N/A   Clear
11:24 AM 66.2 °F 51.8 °F 60% 30.35 in 12.0 mi SE 15.0 mph 21.9 mph N/A   Clear
11:29 AM 66.2 °F 51.8 °F 60% 30.34 in 12.0 mi South 15.0 mph 23.0 mph N/A   Clear
11:39 AM 66.2 °F 51.8 °F 60% 30.34 in 12.0 mi SE 15.0 mph 26.5 mph N/A   Clear
11:49 AM 66.2 °F 51.8 °F 60% 30.33 in 12.0 mi South 13.8 mph 26.5 mph N/A   Clear
11:56 AM 66.0 °F 52.0 °F 60% 30.33 in 12.0 mi SSE 17.3 mph 24.2 mph N/A   Clear
12:15 PM 66.2 °F 51.8 °F 60% 30.32 in 12.0 mi SE 17.3 mph - N/A   Clear
12:23 PM 66.2 °F 51.8 °F 60% 30.32 in 12.0 mi South 15.0 mph 27.6 mph N/A   Partly Cloudy
12:24 PM 66.2 °F 51.8 °F 60% 30.32 in 12.0 mi South 13.8 mph 27.6 mph N/A   Partly Cloudy
12:25 PM 66.2 °F 51.8 °F 60% 30.32 in 12.0 mi South 12.7 mph 24.2 mph N/A   Partly Cloudy
12:27 PM 68.0 °F 50.0 °F 52% 30.32 in 12.0 mi SSE 13.8 mph 24.2 mph N/A   Partly Cloudy
12:28 PM 68.0 °F 50.0 °F 52% 30.32 in 12.0 mi SE 15.0 mph 24.2 mph N/A   Partly Cloudy
12:57 PM 67.6 °F 51.3 °F 56% 30.31 in 12.0 mi South 16.1 mph 27.6 mph N/A   Partly Cloudy
1:02 PM 68.0 °F 50.0 °F 52% 30.31 in 12.0 mi SE 13.8 mph 27.6 mph N/A   Partly Cloudy
1:30 PM 68.0 °F 51.8 °F 56% 30.30 in 12.0 mi South 16.1 mph 29.9 mph N/A   Partly Cloudy
1:33 PM 68.0 °F 51.8 °F 56% 30.30 in 12.0 mi SE 15.0 mph 29.9 mph N/A   Partly Cloudy
1:40 PM 68.0 °F 51.8 °F 56% 30.29 in 12.0 mi South 16.1 mph 25.3 mph N/A   Partly Cloudy
1:41 PM 68.0 °F 51.8 °F 56% 30.29 in 12.0 mi South 16.1 mph 25.3 mph N/A   Partly Cloudy
1:42 PM 68.0 °F 51.8 °F 56% 30.29 in 12.0 mi SSW 15.0 mph 25.3 mph N/A   Partly Cloudy
1:56 PM 66.4 °F 53.1 °F 62% 30.29 in 12.0 mi South 15.0 mph 24.2 mph N/A   Partly Cloudy
1:57 PM 66.2 °F 51.8 °F 60% 30.29 in 12.0 mi South 16.1 mph 25.3 mph N/A   Partly Cloudy
2:11 PM 69.8 °F 48.2 °F 46% 30.28 in 12.0 mi South 13.8 mph 25.3 mph N/A   Mostly Cloudy
2:21 PM 68.0 °F 51.8 °F 56% 30.28 in 12.0 mi South 12.7 mph 24.2 mph N/A   Scattered Clouds
2:45 PM 68.0 °F 51.8 °F 56% 30.28 in 12.0 mi South 15.0 mph 23.0 mph N/A   Partly Cloudy
2:56 PM 66.0 °F 51.3 °F 59% 30.29 in 12.0 mi SW 3.5 mph 20.7 mph N/A   Scattered Clouds
3:21 PM 64.4 °F 53.6 °F 68% 30.28 in 12.0 mi South 12.7 mph 20.7 mph N/A   Mostly Cloudy
3:41 PM 64.4 °F 53.6 °F 68% 30.28 in 12.0 mi South 8.1 mph - N/A   Mostly Cloudy
3:56 PM 65.5 °F 54.0 °F 66% 30.28 in 12.0 mi NNW 5.8 mph - N/A   Mostly Cloudy
4:56 PM 61.7 °F 52.3 °F 71% 30.29 in 8.0 mi SE 15.0 mph 29.9 mph N/A   Mostly Cloudy
5:56 PM 55.6 °F 51.3 °F 85% 30.30 in 12.0 mi SE 11.5 mph 23.0 mph N/A   Clear
6:56 PM 55.4 °F 50.5 °F 84% 30.31 in 12.0 mi SE 3.5 mph 17.3 mph N/A   Clear
7:56 PM 56.7 °F 49.3 °F 76% 30.32 in 12.0 mi NNW 3.5 mph - N/A   Clear
8:56 PM 55.8 °F 49.8 °F 80% 30.33 in 12.0 mi SE 10.4 mph 20.7 mph N/A   Clear
9:56 PM 54.9 °F 49.1 °F 81% 30.33 in 12.0 mi SE 16.1 mph 27.6 mph N/A   Clear
10:56 PM 53.1 °F 48.4 °F 84% 30.34 in 12.0 mi ESE 6.9 mph 24.2 mph N/A   Clear
11:57 PM 51.6 °F 48.0 °F 87% 30.34 in 12.0 mi SE 13.8 mph 21.9 mph N/A   Clear